This demonstration page uses our WeatherBlox Daily Observations layout. Learn more.

Left ArrowRight Arrow

39.51506, -84.39828

Hourly Observations for March 3, 2016

Temp ( °F °C ) Dew Point ( °F °C ) Humidity (%) Winds ( mph kmh ) Pressure ( in mb ) Visibility ( mi km ) Precip ( " mm )
12:15 am 00:15 Clear 29 -1.5 24 -4.5 80 80 Calm 30.21 1023 10 16 0.00 0.00
12:35 am 00:35 Clear 29 -1.6 24 -4.6 80 80 N 5 7 30.21 1023 10 16 0.00 0.00
1:15 am 01:15 Mostly Cloudy 29 -1.6 24 -4.2 83 83 N 3 6 30.21 1023 10 16 0.00 0.00
1:35 am 01:35 Cloudy 29 -1.5 25 -4 83 83 Calm 30.21 1023 10 16 0.00 0.00
1:55 am 01:55 Cloudy 29 -1.5 24 -4.7 79 79 Calm 30.21 1023 10 16 0.00 0.00
2:15 am 02:15 Cloudy 29 -1.4 22 -5.4 75 75 Calm 30.21 1023 10 16 0.00 0.00
2:35 am 02:35 Cloudy 31 -0.8 22 -5.4 71 71 Calm 30.21 1023 10 16 0.00 0.00
2:55 am 02:55 Cloudy 31 -0.7 23 -5 73 73 Calm 30.21 1023 10 16 0.00 0.00
3:15 am 03:15 Mostly Cloudy 31 -0.6 23 -5.2 71 71 Calm 30.21 1023 10 16 0.00 0.00
3:35 am 03:35 Partly Cloudy 30 -1.1 24 -4.7 77 77 Calm 30.18 1022 10 16 0.00 0.00
3:55 am 03:55 Mostly Cloudy 29 -1.5 23 -5.2 76 76 Calm 30.18 1022 10 16 0.00 0.00
4:15 am 04:15 Cloudy 30 -1 22 -5.5 72 72 Calm 30.18 1022 10 16 0.00 0.00
4:35 am 04:35 Cloudy 34 1.2 22 -5.6 61 61 Calm 30.18 1022 10 16 0.00 0.00
4:55 am 04:55 Cloudy 34 1.2 22 -5.7 60 60 Calm 30.18 1022 10 16 0.00 0.00
5:15 am 05:15 Cloudy 34 1.2 22 -5.3 62 62 Calm 30.15 1021 10 16 0.00 0.00
5:35 am 05:35 Cloudy with Light Snow 34 1.2 23 -5 64 64 S 3 6 30.18 1022 10 16 0.00 0.00
5:55 am 05:55 Cloudy 34 1.2 24 -4.3 67 67 S 6 9 30.18 1022 10 16 0.00 0.00
6:15 am 06:15 Cloudy 34 1.2 26 -3.5 71 71 S 5 7 30.18 1022 10 16 0.00 0.00
6:35 am 06:35 Cloudy 34 1.2 26 -3.2 73 73 Calm 30.18 1022 10 16 0.00 0.00
6:55 am 06:55 Cloudy with Light Snow 34 1.2 27 -2.6 76 76 Calm 30.18 1022 3 5 0.00 0.00
7:15 am 07:15 Cloudy with Light Snow 32 0 26 -3.1 80 80 Calm 30.18 1022 3 4 0.00 0.00
7:35 am 07:35 Cloudy with Light Snow 32 0 27 -2.7 82 82 Calm 30.18 1022 2 3 0.00 0.00
7:55 am 07:55 Cloudy with Light Snow 32 0.2 28 -2.1 85 85 E 3 6 30.18 1022 4 6 0.00 0.00
8:15 am 08:15 Cloudy with Mist and Fog 34 1.2 30 -1.1 85 85 E 5 7 30.18 1022 5 8 0.00 0.00
8:35 am 08:35 Cloudy with Light Snow 34 1.2 29 -1.6 82 82 ESE 5 7 30.18 1022 7 11 0.00 0.00
8:55 am 08:55 Cloudy 34 1.2 29 -1.8 81 81 ESE 6 9 30.18 1022 10 16 0.00 0.00
9:15 am 09:15 Cloudy with Light Snow 34 1.2 29 -1.7 81 81 SE 5 7 30.18 1022 7 11 0.00 0.00
9:35 am 09:35 Cloudy with Light Snow 34 1.2 29 -1.7 81 81 SSE 7 11 30.15 1021 3 4 0.00 0.00
9:55 am 09:55 Cloudy with Light Snow 34 1.2 29 -1.5 82 82 SE 7 11 30.15 1021 3 5 0.00 0.00
10:15 am 10:15 Cloudy with Light Snow 34 1.2 29 -1.5 82 82 SSE 8 13 30.15 1021 7 11 0.00 0.00
10:35 am 10:35 Cloudy with Light Snow 34 1.2 29 -1.6 82 82 SSE 8 13 30.15 1021 10 16 0.00 0.00
10:55 am 10:55 Cloudy with Light Snow 34 1.2 29 -1.5 82 82 SE 5 7 30.15 1021 2 2 0.00 0.00
11:15 am 11:15 Cloudy with Light Snow 35 1.7 30 -0.9 83 83 ESE 7 11 30.15 1021 2 3 0.00 0.00
11:35 am 11:35 Cloudy with Light Snow 36 2.2 31 -0.8 81 81 SSE 8 13 30.15 1021 3 5 0.00 0.00
11:55 am 11:55 Cloudy with Light Snow 37 2.6 31 -0.6 80 80 SE 9 15 30.15 1021 5 8 0.00 0.00
12:15 pm 12:15 Cloudy 37 2.6 29 -1.4 75 75 S 9 15 30.12 1020 10 16 0.00 0.00
12:35 pm 12:35 Cloudy with Light Snow 37 2.6 30 -1.2 76 76 S 9 15 30.12 1020 4 6 0.00 0.00
12:55 pm 12:55 Cloudy with Light Snow 37 2.6 32 0 83 83 S 9 15 30.12 1020 4 6 0.00 0.00
1:15 pm 13:15 Cloudy with Light Snow 37 2.6 33 0.3 85 85 S 5 7 30.12 1020 3 5 0.00 0.00
1:35 pm 13:35 Cloudy with Light Snow 37 2.6 33 0.5 86 86 SSW 6 9 30.12 1020 2 3 0.00 0.00
1:55 pm 13:55 Cloudy with Light Snow 37 2.6 33 0.6 87 87 SSW 5 7 30.09 1019 3 4 0.00 0.00
2:15 pm 14:15 Cloudy with Light Snow 36 2.2 32 0.2 87 87 SSW 8 13 30.09 1019 2 3 0.00 0.00
2:35 pm 14:35 Cloudy with Light Snow 34 1.2 31 -0.5 89 89 SSW 5 7 30.09 1019 1 2 0.00 0.00
2:55 pm 14:55 Cloudy with Light Snow 36 2 32 0.1 87 87 SSW 6 9 30.09 1019 2 3 0.00 0.00
3:15 pm 15:15 Cloudy with Light Snow 36 2.1 32 0.1 87 87 S 3 6 30.09 1019 3 4 0.00 0.00
3:35 pm 15:35 Cloudy with Light Snow 37 2.6 33 0.7 87 87 SSE 3 6 30.06 1018 3 5 0.00 0.00
3:55 pm 15:55 Cloudy with Light Snow 36 2.4 33 0.3 86 86 Calm 30.06 1018 3 5 0.00 0.00
4:15 pm 16:15 Cloudy with Light Snow 36 2.2 32 0.2 87 87 ESE 3 6 30.06 1018 3 5 0.00 0.00
4:35 pm 16:35 Cloudy with Light Snow 35 1.8 32 0 88 88 SSE 3 6 30.06 1018 3 4 0.00 0.00
4:55 pm 16:55 Cloudy with Light Snow 36 2.2 32 0.2 87 87 Calm 30.06 1018 3 5 0.00 0.00
5:15 pm 17:15 Cloudy with Light Snow 36 2 32 0 87 87 Calm 30.06 1018 2 3 0.00 0.00
5:35 pm 17:35 Cloudy with Light Snow 36 2.3 33 0.4 87 87 Calm 30.06 1018 4 6 0.00 0.00
5:55 pm 17:55 Cloudy with Mist and Fog 37 2.6 33 0.7 87 87 Calm 30.06 1018 5 8 0.00 0.00
6:15 pm 18:15 Cloudy 37 2.6 33 0.6 87 87 Calm 30.06 1018 7 11 0.00 0.00
6:35 pm 18:35 Cloudy 37 2.6 33 0.6 87 87 Calm 30.06 1018 7 11 0.00 0.00
6:55 pm 18:55 Cloudy 37 2.6 33 0.6 87 87 SE 5 7 30.06 1018 7 11 0.00 0.00
7:15 pm 19:15 Cloudy 37 2.6 33 0.5 86 86 SSE 6 9 30.06 1018 10 16 0.00 0.00
7:35 pm 19:35 Cloudy 37 2.6 33 0.5 86 86 SE 6 9 30.06 1018 10 16 0.00 0.00
7:55 pm 19:55 Cloudy 37 2.6 33 0.5 86 86 SSE 5 7 30.06 1018 10 16 0.00 0.00
8:15 pm 20:15 Cloudy 37 2.6 33 0.5 86 86 Calm 30.06 1018 10 16 0.00 0.00
8:35 pm 20:35 Cloudy 37 2.6 33 0.5 86 86 S 5 7 30.06 1018 10 16 0.00 0.00
8:55 pm 20:55 Cloudy 37 2.6 33 0.5 86 86 S 6 9 30.06 1018 10 16 0.00 0.00
9:15 pm 21:15 Cloudy 37 2.6 33 0.5 86 86 SSW 5 7 30.09 1019 10 16 0.00 0.00
9:35 pm 21:35 Cloudy 37 2.6 33 0.5 86 86 SSW 5 7 30.09 1019 10 16 0.00 0.00
9:55 pm 21:55 Cloudy 37 2.6 33 0.5 86 86 SSW 7 11 30.06 1018 7 11 0.00 0.00
10:15 pm 22:15 Cloudy 37 2.6 33 0.7 87 87 SSW 6 9 30.06 1018 7 11 0.00 0.00
10:35 pm 22:35 Cloudy 37 2.6 33 0.7 87 87 SSW 5 7 30.06 1018 7 11 0.00 0.00
10:55 pm 22:55 Cloudy 37 2.6 33 0.7 87 87 S 3 6 30.06 1018 7 11 0.00 0.00
11:15 pm 23:15 Cloudy with Mist and Fog 37 2.6 33 0.8 88 88 S 6 9 30.06 1018 5 8 0.00 0.00
11:35 pm 23:35 Cloudy 37 2.6 33 0.7 87 87 SSW 5 7 30.06 1018 7 11 0.00 0.00
11:55 pm 23:55 Cloudy with Mist and Fog 37 2.6 33 0.7 87 87 SSW 6 9 30.06 1018 5 8 0.00 0.00

Powered by AerisWeather